Regional Weather Roundup
Issued by NWS

Home | Current Version | Previous Version | Text Only | Print | Product List | Glossary Off
Versions: 1 2 3 4 5 6 7 8 9 10 11 12 13 14 15 16 17 18 19 20 21 22 23 24 25 26 27 28 29 30 31 32 33 34 35 36 37 38 39 40 41 42 43 44 45 46 47 48 49 50

000
ASUS45 KCYS 240510
RWRWY

WYOMING REGIONAL WEATHER ROUNDUP
NATIONAL WEATHER SERVICE CHEYENNE WY
1100 PM MDT FRI JUN 23 2017

NOTE:  "FAIR" INDICATES FEW OR NO CLOUDS BELOW 12,000 FEET
WITH NO SIGNIFICANT WEATHER AND/OR OBSTRUCTIONS TO VISIBILITY.

WYZ001-240600-
YELLOWSTONE NATIONAL PARK

CITY           SKY/WX    TMP DP  RH WIND       PRES   REMARKS
LK YELLOWSTONE   N/A     42  29  59 NW3       30.41R
W YELLOWSTONE  NOT AVBL

$$
WYZ002>013-054>058-071-098>099-240600-
NORTHERN WYOMING

CITY           SKY/WX    TMP DP  RH WIND       PRES   REMARKS
JACKSON        FAIR      46  36  66 N6        30.31R
CODY           FAIR      55  32  41 NW7       30.34R
GREYBULL       FAIR      62  29  28 NW7       30.25R
WORLAND        FAIR      53  33  46 CALM      30.26R
SHERIDAN       FAIR      51  37  58 W6        30.30R
BUFFALO        CLOUDY    53  36  52 NW5       30.34R
GILLETTE       FAIR      43  37  79 SW5       30.29R
NEWCASTLE      FAIR      52  27  37 N7        30.29S

$$
WYZ014>020-022>026-101>103-240600-
CENTRAL WYOMING

CITY           SKY/WX    TMP DP  RH WIND       PRES   REMARKS
BIG PINEY      FAIR      46  30  53 N9        30.33R
PINEDALE       FAIR      48  25  40 NW13      30.33R
DUBOIS         FAIR      50  27  40 E5        30.37R
LANDER         FAIR      55  32  41 W10       30.31R
RIVERTON       FAIR      57  32  38 E8        30.32R
CASPER         FAIR      52  32  46 E8        30.34R
DOUGLAS        FAIR      47  34  60 S6        30.34R

$$
WYZ021-027>030-104>119-240600-
SOUTHERN WYOMING

CITY           SKY/WX    TMP DP  RH WIND       PRES   REMARKS
EVANSTON       FAIR      62  31  31 N6        30.34R
KEMMERER         N/A     54  28  37 NW13      30.35S
FORT BRIDGER   FAIR      60  28  29 W3        30.37R
ROCK SPRINGS   FAIR      57  30  35 NE12      30.32R
DIXON          FAIR      57  29  35 NE5       30.27R
RAWLINS        FAIR      55  31  39 NE17G23   30.32R
SARATOGA       FAIR      52  30  43 S6        30.30R
LARAMIE        FAIR      47  40  76 SE8       30.38R
CHEYENNE       FAIR      54  43  66 W3        30.36R
TORRINGTON     FAIR      52  30  43 NE8       30.28R
PINE BLUFFS    CLOUDY    54  41  62 CALM      30.33R

$$



USA.gov is the U.S. government's official web portal to all federal, state and local government web resources and services.